This is the latest recevied weather packets stored in our database for station/object EA5JUX. If no packets are shown the sender has not sent any weather packets the latest 10 day(s).
| Time | Temp. | Humidity | Pressure | Rain* | Wind** | Luminosity | Snow |
|---|---|---|---|---|---|---|---|
| 1787596902 | 27.78° C | 66% | 1009.2 hPa | 0 mm | - | - | - |
| 1787596602 | 27.78° C | 67% | 1009.3 hPa | 0 mm | - | - | - |
| 1787596311 | 27.78° C | 68% | 1009.3 hPa | 0 mm | - | - | - |
| 1787596002 | 27.78° C | 69% | 1009.3 hPa | 0 mm | - | - | - |
| 1787595702 | 27.78° C | 69% | 1009.4 hPa | 0 mm | - | - | - |
| 1787595402 | 27.78° C | 70% | 1009.3 hPa | 0 mm | - | - | - |
| 1787595102 | 27.78° C | 69% | 1009 hPa | 0 mm | - | - | - |
| 1787594801 | 27.78° C | 69% | 1009.1 hPa | 0 mm | - | - | - |
| 1787594502 | 27.78° C | 69% | 1009.2 hPa | 0 mm | - | - | - |
| 1787594202 | 27.78° C | 68% | 1009.3 hPa | 0 mm | - | - | - |
| 1787593911 | 27.78° C | 69% | 1009.2 hPa | 0 mm | - | - | - |
| 1787593602 | 27.78° C | 68% | 1009.2 hPa | 0 mm | - | - | - |
| 1787593302 | 28.33° C | 67% | 1009.5 hPa | 0 mm | - | - | - |
| 1787593002 | 28.33° C | 66% | 1009.3 hPa | 0 mm | - | - | - |
| 1787592702 | 28.33° C | 66% | 1009.5 hPa | 0 mm | - | - | - |
| 1787592403 | 28.33° C | 65% | 1009.4 hPa | 0 mm | - | - | - |
| 1787592102 | 28.33° C | 66% | 1009.7 hPa | 0 mm | - | - | - |
| 1787591801 | 28.33° C | 65% | 1009.6 hPa | 0 mm | - | - | - |
| 1787591521 | 28.33° C | 62% | 1009.8 hPa | 0 mm | - | - | - |
| 1787591202 | 28.33° C | 64% | 1009.6 hPa | 0 mm | - | - | - |
| 1787590903 | 28.33° C | 66% | 1009.7 hPa | 0 mm | - | - | - |
| 1787590602 | 28.33° C | 66% | 1009.8 hPa | 0 mm | - | - | - |
| 1787590309 | 28.33° C | 64% | 1009.9 hPa | 0 mm | - | - | - |
| 1787590013 | 28.33° C | 65% | 1009.7 hPa | 0 mm | - | - | - |
| 1787589703 | 28.33° C | 66% | 1009.8 hPa | 0 mm | - | - | - |
* Rain latest hour (hover to see other rain measurements)
** Current wind speed in m/s (hover to see current wind gust speed)